EHI
0 0 0 0 0 0 0 0 0 0 0 0 0 0 0 0 0 0 0 0 0 0 0 0 0 0 0 0 0 0 0 0 0 0 0 0 0 0 0 0 0 0 0
0 0 0 0 0 0 0 0 0 0 0 0 0 0 0 0 0 0 0 0 0 0 0 0 0 0 0 0 0 0 0 0 0 0 0 0 0 0 0 0 0 0 0
0 0 0 0 0 0 0 0 0 0 0 0 0 0 0 0 0 0 0 0 0 0 0 0 0 0 0 0 0 0 0 0 0 0 0 0 0 0 0 0 0 0 0
0 0 0 0 0 0 0 0 0 0 0 0 0 0 0 0 0 0 0 0 0 0 0 0 0 0 0 0 0 0 0 0 0 0 0 0 0 0 0 0 0 0 0
0 0 0 0 0 0 0 0 0 0 0 0 0 0 0 0 0 0 0 0 0 0 0 0 0 0 0 0 0 0 0 0 0 0 0 0 0 0 0 0 0 0 0
0 0 0 0 0 0 0 0 0 0 0 0 0 0 0 0 0 0 0 0 0 0 0 0 0 0 0 0 0 0 0 0 0 0 0 0 0 0 0 0 0 0 0
0 0 0 0 0 0 0 0 0 0 0 0 0 0 0 0 0 0 0 0 0 0 0 0 0 0 0 0 0 0 0 0 0 0 0 0 0 0 0 0 0 0 0
0 0 0 0 0 0 0 0 0 0 0 0 0 0 0 0 0 0 0 0 0 0 0 0 0 0 0 0 0 0 0 0 0 0 0 0 0 0 0 0 0 0 0
0 0 0 0 0 0 0 0 0 0 0 0 0 0 0 0 0 0 0 0 0 0 0 0 0 0 0 0 0 0 0 0 0 0 0 0 0 0 0 0 0 0 0
0 0 0 0 0 0 0 0 0 0 0 0 0 0 0 0 0 0 0 0 0 0 0 0 0 0 0 0 0 0 0 0 0 0 0 0 0 0 0 0 0 0 0
0 0 0 0 0 0 0 0 0 0 0 0 0 0 0 0 0 0 0 0 0 0 0 0 0 0 0 0 0 0 0 0 0 0 0 0 0 0 0 0 0 0 0
0 0 0 0 0 0 0 0 0 0 0 0 0 0 0 0 0 0 0 0 0 0 0 0 0 0 0 0 0 0 0 0 0 0 0 0 0 0 0 0 0 0 0
0 0 0 0 0 0 0 0 0 0 0 0 0 0 0 0 0 0 0 0 0 0 0 0 0 0 0 0 0 0 0 0 0 0 0 0 0 0 0 0 0 0 0
0 0 0 0 0 0 0 0 0 0 0 0 0 0 0 0 0 0 0 0 0 0 0 0 0 0 0 0 0 0 0 0 0 0 0 0 0 0 0 0 0 0 0
0 0 0 0 0 0 0 0 0 0 0 0 0 0 0 0 0 0 0 0 0 0 0 0 0 0 0 0 0 0 0 0 0 0 0 0 0 0 0 0 0 0 0
0 0 0 0 1 1 1 0 0 0 0 0 0 0 0 0 0 0 0 0 0 0 0 0 0 0 0 0 0 0 0 0 0 0 0 0 0 0 0 0 0 0 0
0 0 0 1 2 2 2 1 0 0 0 0 0 0 0 0 0 0 0 0 0 0 0 0 0 0 0 0 0 0 0 0 0 0 0 0 0 0 0 0 0 0 0
0 0 1 2 3 3 2 1 0 0 0 0 0 0 0 0 0 0 0 0 0 0 0 0 0 0 0 0 0 0 0 0 0 0 0 0 0 0 0 0 0 0 0
0 0 1 2 2 2 1 0 0 0 0 0 0 0 0 0 0 0 0 0 0 0 0 0 0 0 0 0 0 0 0 0 0 0 0 0 0 0 0 0 0 0 0
0 0 0 1 1 1 0 0 0 0 0 0 0 0 0 0 0 0 0 0 0 0 0 0 0 0 0 0 0 0 0 0 0 0 0 0 0 0 0 0 0 0 0
0 0 0 0 0 0 0 0 0 0 0 0 0 0 0 0 0 0 0 0 0 0 0 0 0 0 0 0 0 0 0 0 0 0 0 0 0 0 0 0 0 0 0
0 0 0 0 0 0 0 0 0 0 0 0 0 0 0 0 0 0 0 0 0 0 0 0 0 0 0 0 0 0 0 0 0 0 0 0 0 0 0 0 0 0 0
0 0 0 0 0 0 0 0 0 0 0 0 0 0 0 0 0 0 0 0 0 0 0 0 0 0 0 0 0 0 0 0 0 0 0 0 0 0 0 0 0 0 0
0 0 0 0 0 0 0 0 0 0 0 0 0 0 0 0 0 0 0 0 0 0 0 0 0 0 0 0 0 0 0 0 0 0 0 0 0 0 0 0 0 0 0
0 0 0 0 0 0 0 0 0 0 0 0 0 0 0 0 0 0 0 0 0 0 0 0 0 0 0 0 0 0 0 0 0 0 0 0 0 0 0 0 0 0 0
0 0 0 0 0 0 0 0 0 0 0 0 0 0 0 0 0 0 0 0 0 0 0 0 0 0 0 0 0 0 0 0 0 0 0 0 0 0 0 0 0 0 0
Wind_Speed
5 5 7 6 6 5 5 5 5 4 4 3 3 3 2 2 2 3 4 5 5 5 5 4 4 4 4 4 4 3 4 4 3 3 3 4 4 5 4 4 4 5 5
4 5 6 6 6 6 5 5 5 4 4 3 2 2 2 1 1 2 4 5 5 5 4 4 3 4 4 5 5 4 3 3 4 3 3 3 5 4 5 4 5 5 5
9 7 6 6 6 6 6 5 4 4 4 4 3 3 3 3 3 3 2 3 4 5 4 4 4 4 4 3 4 4 4 3 4 3 3 3 0 2 4 4 5 5 4
8 7 7 6 6 6 6 6 5 4 4 5 5 5 3 2 1 1 1 2 4 4 4 4 4 4 3 4 4 4 3 4 3 3 3 2 2 2 2 4 4 5 5
10 9 8 8 6 6 6 5 5 4 4 4 5 5 3 2 1 1 2 2 3 3 3 4 4 4 3 4 4 4 4 3 3 2 2 3 3 3 3 1 3 4 3
9 8 7 6 5 5 5 5 5 4 4 5 5 5 6 4 3 2 1 1 1 2 2 3 3 3 3 3 3 4 5 4 4 4 3 3 2 2 2 2 1 2 3
9 8 8 7 7 7 6 6 6 5 4 5 4 5 6 6 5 4 3 2 1 1 1 2 2 2 2 3 3 4 4 3 4 4 3 3 2 1 2 2 1 2 2
10 10 10 9 8 8 7 6 6 5 5 5 4 4 5 4 3 4 3 3 2 2 1 2 2 2 3 3 3 3 3 3 4 4 3 3 2 2 2 2 2 2 3
11 11 10 9 9 9 8 8 7 5 5 5 5 4 4 4 4 3 3 2 2 2 2 2 2 2 3 3 3 3 2 3 3 3 3 3 2 2 2 2 2 3 1
10 10 10 10 9 8 7 7 7 7 5 5 5 4 4 4 4 4 4 3 2 2 3 2 2 2 2 3 3 2 2 3 3 2 4 3 2 2 2 2 2 2 3
12 11 10 9 8 7 7 7 6 5 5 5 4 5 4 4 4 4 4 4 3 3 3 3 3 3 2 2 3 2 3 3 3 3 3 3 2 2 2 2 2 2 2
10 9 9 8 7 8 7 7 7 6 6 5 5 5 4 4 4 4 4 4 3 3 3 3 3 3 2 2 3 3 3 3 3 2 3 2 2 3 2 2 2 1 1
7 7 7 8 8 8 7 7 7 7 6 5 5 5 4 4 4 4 4 4 4 3 3 4 3 3 2 2 2 3 3 3 2 2 2 1 2 2 2 2 1 1 1
8 8 8 8 8 8 8 7 7 7 6 6 6 6 6 5 5 4 4 4 4 4 4 3 3 3 3 3 3 3 3 2 2 2 2 1 1 1 0 1 1 1 1
8 9 9 9 8 7 7 7 6 6 7 6 6 7 6 5 5 4 4 4 4 4 4 4 3 2 3 3 3 3 3 2 1 1 1 0 0 0 1 0 0 1 1
10 10 9 9 9 8 8 7 7 6 6 7 7 6 6 6 6 5 5 4 4 3 3 4 4 3 2 4 5 4 3 2 2 0 1 1 1 2 3 2 1 0 1
9 10 10 10 10 9 9 9 8 6 6 7 6 6 6 6 6 6 5 5 4 4 4 3 3 3 2 4 4 5 4 3 2 1 1 1 1 2 1 3 3 3 3
9 9 9 9 8 7 7 6 6 7 7 6 6 6 6 6 5 5 5 5 4 4 4 3 3 3 2 4 4 4 3 2 1 2 2 2 1 1 1 1 2 2 3
9 8 8 8 8 8 7 7 6 6 7 7 7 7 7 6 6 6 6 5 4 4 3 3 4 3 3 4 4 4 2 1 1 1 2 2 2 3 2 0 1 3 4
5 6 6 6 7 7 7 8 7 7 8 8 7 7 7 7 7 7 6 4 4 4 4 3 3 4 3 4 5 5 2 2 1 1 2 3 3 3 2 1 1 3 4
4 5 6 7 7 7 8 8 8 9 9 6 6 6 6 6 6 5 4 4 4 4 3 3 3 3 4 5 6 6 3 3 2 2 2 3 5 5 4 3 3 5 5
4 5 6 6 5 7 9 8 9 7 5 6 6 6 5 5 5 5 4 4 5 4 4 3 3 3 3 5 6 7 6 5 4 3 3 4 6 6 5 4 5 7 5
4 4 5 5 4 6 8 9 7 5 6 6 6 5 5 4 5 5 5 4 4 4 4 3 4 3 3 4 7 7 8 7 5 4 6 5 6 5 5 6 7 5 2
4 4 5 5 4 5 6 6 6 6 7 6 6 5 5 4 4 4 4 4 4 4 4 4 4 4 3 3 3 4 4 6 5 4 4 6 5 4 4 5 4 3 3
3 4 5 5 5 4 4 4 5 7 7 6 5 5 5 5 4 4 4 5 6 7 7 6 5 5 5 7 9 6 5 4 5 3 1 1 1 2 3 3 3 3 3
3 3 3 4 4 4 4 4 5 7 7 5 5 4 4 3 3 3 2 4 5 7 9 9 7 6 8 8 9 9 9 9 8 4 2 3 4 4 4 4 4 3 4
Wind_Direction
176 155 146 141 131 124 121 125 122 123 116 103 97 86 67 43 38 43 46 47 49 53 58 52 40 39 44 33 30 36 38 28 26 57 30 10 23 36 32 31 37 37 37
167 157 148 145 146 144 138 135 137 136 132 131 133 129 121 91 62 33 38 40 49 52 64 61 50 43 46 37 33 38 47 28 30 78 75 25 3 5 19 23 35 32 33
177 170 158 155 152 153 154 152 152 142 134 127 108 86 64 47 33 29 24 24 51 60 61 58 57 51 56 50 40 43 61 52 25 46 105 110 99 337 352 15 25 24 34
182 174 165 163 164 165 156 149 147 143 136 127 125 130 129 134 179 179 59 37 44 58 66 64 57 53 53 51 45 54 58 72 46 25 42 88 133 111 16 352 3 21 33
185 182 175 171 167 159 151 147 142 139 135 129 135 131 129 145 147 108 74 47 31 41 60 66 61 56 54 55 55 54 55 63 73 57 44 48 48 64 103 34 346 1 7
185 179 175 161 154 149 147 146 143 146 142 137 138 140 143 142 130 125 109 57 32 29 44 65 62 61 59 59 63 66 66 63 70 66 62 74 72 56 83 95 8 353 339
177 173 172 168 162 160 159 154 150 152 152 145 148 155 154 151 153 161 156 143 113 78 42 64 65 63 64 67 71 70 64 62 71 69 65 64 69 98 104 100 69 18 337
178 178 180 176 169 168 166 162 159 162 165 160 163 166 158 152 160 168 164 164 172 180 155 116 91 78 74 70 74 74 68 68 71 70 68 63 43 61 92 123 117 57 2
180 179 179 178 175 174 176 172 166 164 171 170 165 168 167 156 161 169 166 169 174 163 133 117 101 83 79 75 80 77 70 73 72 71 67 62 35 41 57 85 116 124 78
180 179 181 182 182 180 178 172 168 170 174 172 174 173 175 168 164 158 163 167 165 139 125 121 114 98 84 76 78 81 75 78 66 68 67 53 33 37 41 59 73 105 133
184 184 184 185 181 174 172 172 173 168 170 173 174 165 170 165 159 163 171 169 158 145 141 147 132 117 103 90 89 95 88 86 71 65 74 57 49 46 35 47 60 67 104
182 180 177 175 175 177 177 179 179 177 181 179 171 169 168 161 164 174 177 165 158 155 156 147 134 127 119 111 113 116 103 104 93 80 78 56 57 47 33 41 43 44 85
172 169 168 174 180 182 182 184 186 187 181 175 171 170 169 169 176 180 171 159 154 150 149 140 141 143 143 134 134 126 115 113 113 112 106 89 76 49 29 41 39 18 32
174 173 179 184 185 185 185 188 192 187 179 175 173 177 181 182 181 175 165 160 153 151 156 156 156 158 155 148 141 129 119 111 108 111 121 134 133 148 133 60 42 49 42
181 183 184 187 187 187 189 191 192 187 179 174 179 186 185 179 169 166 167 163 157 158 159 152 150 154 151 156 151 145 135 126 108 70 78 118 146 150 147 114 169 108 76
191 190 187 185 188 190 191 189 189 187 175 178 187 179 173 170 170 173 166 162 163 157 149 154 152 154 162 157 155 146 135 133 133 148 312 328 8 2 3 357 353 141 141
190 187 190 192 193 193 188 190 190 176 172 179 181 176 172 171 176 175 165 170 169 156 155 163 156 161 176 169 160 153 141 144 159 180 210 318 351 7 0 345 351 343 333
186 189 190 193 194 189 185 179 170 169 175 180 181 180 175 178 175 167 170 174 163 161 166 171 171 168 197 192 179 164 141 144 180 202 199 201 264 290 288 324 341 317 307
188 190 189 186 184 182 178 164 165 169 174 185 191 188 180 177 175 178 182 176 163 168 174 175 175 179 216 209 194 170 143 157 231 243 215 201 221 267 284 334 308 313 309
185 182 175 166 173 183 169 165 174 177 190 195 194 187 180 179 184 189 185 174 170 183 180 184 191 192 207 215 209 192 161 185 235 262 263 246 239 255 261 220 235 281 286
178 169 163 173 186 176 166 174 180 196 200 187 177 174 178 183 185 182 176 171 173 174 181 193 208 208 216 223 218 202 182 196 213 232 250 255 262 265 270 257 230 257 279
161 160 166 181 181 170 169 179 197 201 177 165 169 177 180 182 175 165 171 170 169 175 192 200 225 236 234 224 222 216 212 204 202 227 237 245 258 265 273 271 278 288 300
164 165 168 172 177 178 177 187 199 174 162 164 176 180 178 181 169 168 173 171 173 183 201 203 221 240 240 238 233 229 228 222 217 229 233 241 253 263 273 279 287 292 279
160 154 150 161 184 192 189 189 178 164 161 169 179 178 177 180 176 175 178 179 187 195 203 209 221 233 238 236 234 233 235 233 233 237 249 256 266 259 264 280 283 263 246
163 155 162 175 189 184 184 177 166 162 166 173 177 179 182 181 185 191 197 196 205 201 200 211 211 211 231 237 224 214 221 217 219 204 216 242 258 264 270 271 269 263 264
159 155 162 170 179 174 178 178 171 167 167 174 179 181 180 181 182 186 226 243 228 226 219 216 213 225 231 240 236 233 232 224 211 191 214 232 237 244 252 258 264 257 251